TimeEST,TemperatureF,Dew PointF,Humidity,Sea Level PressureIn,VisibilityMPH,Wind Direction,Wind SpeedMPH,Gust SpeedMPH,PrecipitationIn,Events,Conditions,WindDirDegrees,DateUTC
12:54 AM,16.0,7.0,68,30.33,10.0,West,5.8,-,N/A,,Clear,270,2014-02-11 05:54:00
1:54 AM,19.0,7.0,59,30.34,10.0,NW,4.6,-,N/A,,Clear,310,2014-02-11 06:54:00
2:54 AM,18.0,7.0,62,30.35,9.0,NW,5.8,-,N/A,,Clear,320,2014-02-11 07:54:00
3:54 AM,17.1,7.0,65,30.36,9.0,NNW,6.9,-,N/A,,Clear,330,2014-02-11 08:54:00
4:54 AM,16.0,6.1,65,30.38,10.0,NNW,6.9,-,N/A,,Clear,330,2014-02-11 09:54:00
5:54 AM,15.1,5.0,64,30.39,10.0,NNW,10.4,-,N/A,,Clear,340,2014-02-11 10:54:00
6:54 AM,15.1,5.0,64,30.41,10.0,NW,4.6,-,N/A,,Clear,320,2014-02-11 11:54:00
7:54 AM,17.1,6.1,62,30.43,9.0,NW,5.8,-,N/A,,Clear,320,2014-02-11 12:54:00
8:54 AM,19.9,6.1,55,30.45,10.0,NNW,8.1,-,N/A,,Clear,340,2014-02-11 13:54:00
9:54 AM,21.9,3.0,44,30.45,10.0,NNW,11.5,-,N/A,,Clear,340,2014-02-11 14:54:00
10:54 AM,24.1,3.0,40,30.44,10.0,NNW,13.8,19.6,N/A,,Clear,340,2014-02-11 15:54:00
11:54 AM,25.0,3.0,39,30.42,10.0,NW,12.7,-,N/A,,Clear,320,2014-02-11 16:54:00
12:54 PM,25.0,3.9,41,30.39,10.0,NNW,13.8,-,N/A,,Clear,340,2014-02-11 17:54:00
1:54 PM,27.0,5.0,39,30.38,10.0,WNW,9.2,-,N/A,,Clear,290,2014-02-11 18:54:00
2:54 PM,26.1,3.9,39,30.38,10.0,NW,9.2,18.4,N/A,,Clear,310,2014-02-11 19:54:00
3:54 PM,27.0,3.0,36,30.39,10.0,NW,10.4,-,N/A,,Clear,320,2014-02-11 20:54:00
4:54 PM,25.0,3.9,41,30.40,10.0,NW,6.9,-,N/A,,Clear,320,2014-02-11 21:54:00
5:54 PM,24.1,3.0,40,30.42,10.0,NW,5.8,-,N/A,,Clear,320,2014-02-11 22:54:00
6:54 PM,24.1,3.0,40,30.45,10.0,WNW,4.6,-,N/A,,Clear,290,2014-02-11 23:54:00
7:54 PM,21.9,3.9,46,30.47,10.0,NW,5.8,-,N/A,,Clear,320,2014-02-12 00:54:00
8:54 PM,19.9,3.0,48,30.48,10.0,North,3.5,-,N/A,,Clear,350,2014-02-12 01:54:00
9:54 PM,19.0,3.0,50,30.51,10.0,North,10.4,-,N/A,,Clear,360,2014-02-12 02:54:00
10:54 PM,19.0,3.0,50,30.51,10.0,North,6.9,-,N/A,,Clear,360,2014-02-12 03:54:00
11:54 PM,15.1,1.9,56,30.51,10.0,North,6.9,-,N/A,,Clear,360,2014-02-12 04:54:00